This demonstration page uses our WeatherBlox Daily Observations layout. Learn more.

38.88101, -77.10428

Hourly Observations for January 12, 2017

Temp ( °F °C ) Dew Point ( °F °C ) Humidity (%) Winds ( mph kmh ) Pressure ( in mb ) Visibility ( mi km ) Precip ( " mm )
12:52 am 00:52 Cloudy 51 10.6 49 9.4 92 92 SSW 13 20 30.19 1023 10 16.0934 0 0
1:52 am 01:52 Cloudy 51 10.6 49 9.4 92 92 SSW 14 22 30.18 1022 10 16.0934 0 0
2:52 am 02:52 Cloudy 52 11.1 49 9.4 89 89 SSW 18 30 30.17 1022 10 16.0934 0 0
3:52 am 03:52 Cloudy 53 11.7 50 10 89 89 SSW 16 26 30.16 1021 10 16.0934 0 0
4:52 am 04:52 Cloudy 52 11.1 50 10 93 93 S 15 24 30.15 1021 10 16.0934 0.01 0.254
5:52 am 05:52 Mostly Clear 54 12.2 51 10.6 90 90 SSW 18 30 30.15 1021 10 16.0934 0 0
6:52 am 06:52 Cloudy 55 12.8 51 10.6 87 87 SSW 23 37 30.15 1021 10 16.0934 0 0
7:52 am 07:52 Cloudy 56 13.3 52 11.1 87 87 SSW 15 24 30.15 1021 10 16.0934 0.01 0.254
8:52 am 08:52 Cloudy 57 13.9 52 11.1 83 83 SSW 17 28 30.16 1021 10 16.0934 0 0
9:52 am 09:52 Cloudy 59 15 52 11.1 78 78 SSW 18 30 30.16 1021 10 16.0934 0 0
10:52 am 10:52 Mostly Cloudy 64 17.8 53 11.7 68 68 SSW 23 37 30.14 1021 10 16.0934 0 0
11:52 am 11:52 Cloudy 65 18.3 52 11.1 63 63 SSW 20 31 30.11 1020 10 16.0934 0 0
12:52 pm 12:52 Mostly Cloudy 68 20 52 11.1 57 57 SSW 23 37 30.07 1018 10 16.0934 0 0
1:52 pm 13:52 Mostly Cloudy 71 21.7 52 11.1 51 51 SSW 21 33 30.06 1018 10 16.0934 0 0
2:52 pm 14:52 Mostly Cloudy 72 22.2 52 11.1 50 50 SSW 25 41 30.05 1018 10 16.0934 0 0
3:52 pm 15:52 Cloudy 71 21.7 52 11.1 51 51 SSW 29 46 30.04 1017 10 16.0934 0 0
4:52 pm 16:52 Cloudy 69 20.6 51 10.6 53 53 SSW 23 37 30.06 1018 10 16.0934 0 0
5:52 pm 17:52 Cloudy 68 20 51 10.6 55 55 SSW 21 33 30.07 1018 10 16.0934 0 0
6:52 pm 18:52 Mostly Cloudy 67 19.4 51 10.6 57 57 SSW 17 28 30.09 1019 10 16.0934 0 0
7:52 pm 19:52 Partly Cloudy 66 18.9 51 10.6 59 59 SSW 18 30 30.11 1020 10 16.0934 0 0
8:52 pm 20:52 Mostly Cloudy 66 18.9 51 10.6 59 59 SSW 21 33 30.11 1020 10 16.0934 0 0
9:52 pm 21:52 Mostly Cloudy 64 17.8 51 10.6 63 63 SSW 16 26 30.13 1020 10 16.0934 0 0
10:52 pm 22:52 Mostly Cloudy 63 17.2 51 10.6 65 65 SSW 16 26 30.14 1021 10 16.0934 0 0

Powered by AerisWeather